リニア彗星

C/2017 B3 ( LINEAR )

English version
Home page
Updated on May 20, 2019

---------------------------------------------------------------------

・ プロフィール

発見日 2017年1月26日
発見光度 19.2等
発見者 LINEAR survey (Space Surveillance Telescope, Atom Peak, White Sands Missile Range, NM, USA)

・ 写真集

・ 軌道要素

Epoch 2019 Feb. 6.0 TT = JDT 2458520.5
T 2019 Feb. 2.50321 TT                                  MPCW
q   3.9211599            (2000.0)            P               Q
z  -0.0005397      Peri.  284.74955     +0.27591258     +0.96068896
 +/-0.0000008      Node     2.17727     -0.19811251     +0.08820116
e   1.0021164      Incl.   54.17877     -0.94054435     +0.26324374
From 290 observations 2016 Apr. 1-2019 Mar. 27, mean residual 0".4.

・ 星図

・ 光度変化

        m1 = 5.7 + 5 logΔ + 10.0 log r

---------------------------------------------------------------------

軌道要素はM.P.E.C. 2019-J142に掲載されたものです。
星図はステラナビゲータ Ver.10 (アストロアーツ) で作成したものです。
光度グラフはComet for Windowsで作成したものです。

---------------------------------------------------------------------

Copyright(C) Seiichi Yoshida (comet@aerith.net). All rights reserved.